Weather History for Cody, WY

Change the Weather History Date:

Thursday, December 6, 2012

  Actual Average Record
Temperature  
Mean Temperature 30 °F -  
Max Temperature 37 °F 38 °F 61 °F (1939)
Min Temperature 23 °F 17 °F -27 °F (1972)
Degree Days  
Heating Degree Days 35    
Moisture  
Dew Point 21 °F    
Average Humidity 66    
Maximum Humidity 100    
Minimum Humidity 48    
Precipitation  
Precipitation 0.00 in - - ()
Sea Level Pressure  
Sea Level Pressure 29.90 in    
Wind  
Wind Speed 7 mph (North)    
Max Wind Speed 15 mph    
Max Gust Speed 21 mph    
Visibility 9 miles    
Events      
Averages and records for this station are not official NWS values.
T = Trace of Precipitation, MM = Missing Value Source: NWS Daily Summary

Daily Weather History Graph

Daily Weather History Graph

Search for Another Location

Airport:

Trip Planner

Search our weather history database for the weather conditions in past years. The results will help you decide how hot, cold, wet, or windy it might be!

Date:

Astronomy

Dec. 06, 2012 Rise Set
Actual Time 7:38 AM MST 4:36 PM MST
Civil Twilight 7:05 AM MST 5:09 PM MST
Nautical Twilight 6:28 AM MST 5:45 PM MST
Astronomical Twilight 5:53 AM MST 6:21 PM MST
Moon No Moon Rise 12:18 PM MST (12/6)
Length of Visible Light 10h 04m
Length of Day
8h 57m
Waning Gibbous, 48% of the Moon is Illuminated
Dec 6
Waning Gibbous
Dec 13
New
Dec 19
First Quarter
Dec 28
Full
Jan 4
Last Quarter

Hourly Weather History & Observations

Time (MST) Temp. Windchill Dew Point Humidity Pressure Visibility Wind Dir Wind Speed Gust Speed Precip Events Conditions
12:15 AM 37.4 °F 30.8 °F 24.8 °F 60% 29.96 in 10.0 mi NNW 9.2 mph - N/A   Overcast
12:35 AM 35.6 °F 26.2 °F 21.2 °F 56% 29.96 in 10.0 mi NNW 15.0 mph 20.7 mph N/A   Mostly Cloudy
12:55 AM 35.6 °F 26.6 °F 19.4 °F 52% 29.96 in 10.0 mi North 13.8 mph - N/A   Mostly Cloudy
1:15 AM 35.6 °F 27.5 °F 19.4 °F 52% 29.96 in 10.0 mi North 11.5 mph 17.3 mph N/A   Scattered Clouds
1:35 AM 33.8 °F 26.4 °F 19.4 °F 56% 29.95 in 10.0 mi NNW 9.2 mph - N/A   Mostly Cloudy
1:55 AM 33.8 °F 27.0 °F 15.8 °F 48% 29.95 in 10.0 mi NNW 8.1 mph - N/A   Partly Cloudy
2:15 AM 33.8 °F 25.8 °F 17.6 °F 52% 29.96 in 10.0 mi NNW 10.4 mph - N/A   Partly Cloudy
2:55 AM 32.0 °F 27.5 °F 17.6 °F 55% 29.97 in 10.0 mi NNW 4.6 mph - N/A   Mostly Cloudy
3:15 AM 32.0 °F 28.7 °F 17.6 °F 55% 29.96 in 10.0 mi NNW 3.5 mph - N/A   Mostly Cloudy
3:35 AM 30.2 °F - 17.6 °F 60% 29.96 in 10.0 mi Calm Calm - N/A   Mostly Cloudy
3:55 AM 30.2 °F 23.4 °F 19.4 °F 64% 29.96 in 10.0 mi NW 6.9 mph - N/A   Partly Cloudy
4:15 AM 30.2 °F 25.4 °F 19.4 °F 64% 29.95 in 10.0 mi NNW 4.6 mph - N/A   Partly Cloudy
4:35 AM 28.4 °F - 19.4 °F 69% 29.95 in 10.0 mi Calm Calm - N/A   Clear
5:15 AM 28.4 °F - 19.4 °F 69% 29.95 in 10.0 mi Calm Calm - N/A   Clear
5:35 AM 26.6 °F - 17.6 °F 69% 29.95 in 10.0 mi Calm Calm - N/A   Clear
6:15 AM 23.0 °F 14.7 °F 17.6 °F 80% 29.94 in 10.0 mi SSE 6.9 mph - N/A   Clear
6:35 AM 24.8 °F 17.9 °F 19.4 °F 80% 29.95 in 10.0 mi SSE 5.8 mph - N/A   Clear
6:55 AM 24.8 °F 19.1 °F 19.4 °F 80% 29.95 in 10.0 mi SE 4.6 mph - N/A   Clear
7:15 AM 26.6 °F 22.6 °F 19.4 °F 74% 29.95 in 10.0 mi SSE 3.5 mph - N/A   Clear
7:55 AM 23.0 °F 14.7 °F 17.6 °F 80% 29.95 in 10.0 mi South 6.9 mph - N/A   Clear
8:35 AM 26.6 °F 20.0 °F 19.4 °F 74% 29.95 in 10.0 mi South 5.8 mph - N/A   Clear
8:55 AM 28.4 °F 24.6 °F 21.2 °F 74% 29.95 in 10.0 mi SE 3.5 mph - N/A   Clear
9:15 AM 30.2 °F 25.4 °F 21.2 °F 69% 29.95 in 10.0 mi South 4.6 mph - N/A   Clear
9:55 AM 33.8 °F - 19.4 °F 56% 29.95 in 10.0 mi Calm Calm - N/A   Clear
10:15 AM 33.8 °F - 19.4 °F 56% 29.95 in 10.0 mi Calm Calm - N/A   Clear
10:35 AM 33.8 °F 30.8 °F 19.4 °F 56% 29.94 in 10.0 mi NE 3.5 mph - N/A   Clear
10:55 AM 35.6 °F 32.8 °F 19.4 °F 52% 29.94 in 10.0 mi North 3.5 mph - N/A   Clear
11:15 AM 35.6 °F 31.7 °F 19.4 °F 52% 29.92 in 10.0 mi NNE 4.6 mph - N/A   Clear
11:35 AM 35.6 °F 30.7 °F 19.4 °F 52% 29.91 in 10.0 mi NNE 5.8 mph - N/A   Clear
11:56 AM 37.4 °F 30.3 °F 19.4 °F 48% 29.90 in 10.0 mi NE 10.4 mph - N/A   Clear
12:15 PM 37.4 °F 31.4 °F 19.4 °F 48% 29.88 in 10.0 mi NE 8.1 mph - N/A   Clear
12:35 PM 37.4 °F 32.8 °F 19.4 °F 48% 29.87 in 10.0 mi NNE 5.8 mph - N/A   Clear
12:55 PM 37.4 °F 33.8 °F 19.4 °F 48% 29.86 in 10.0 mi East 4.6 mph - N/A   Clear
1:15 PM 37.4 °F 30.8 °F 19.4 °F 48% 29.86 in 10.0 mi NNE 9.2 mph - N/A   Clear
1:35 PM 37.4 °F 32.8 °F 19.4 °F 48% 29.86 in 10.0 mi NNE 5.8 mph - N/A   Clear
1:55 PM 37.4 °F 32.1 °F 19.4 °F 48% 29.85 in 10.0 mi North 6.9 mph - N/A   Clear
2:15 PM 37.4 °F 32.1 °F 19.4 °F 48% 29.84 in 10.0 mi NNE 6.9 mph - N/A   Clear
2:35 PM 37.4 °F 31.4 °F 19.4 °F 48% 29.84 in 10.0 mi NNE 8.1 mph - N/A   Clear
2:55 PM 35.6 °F 29.2 °F 19.4 °F 52% 29.84 in 10.0 mi North 8.1 mph - N/A   Partly Cloudy
3:35 PM 35.6 °F 28.6 °F 17.6 °F 48% 29.84 in 10.0 mi North 9.2 mph - N/A   Mostly Cloudy
3:55 PM 35.6 °F 28.6 °F 17.6 °F 48% 29.84 in 10.0 mi NNE 9.2 mph - N/A   Overcast
4:15 PM 35.6 °F 28.0 °F 17.6 °F 48% 29.84 in 10.0 mi North 10.4 mph - N/A   Mostly Cloudy
4:35 PM 33.8 °F 27.7 °F 17.6 °F 52% 29.84 in 10.0 mi North 6.9 mph - N/A   Mostly Cloudy
4:55 PM 33.8 °F 28.6 °F 17.6 °F 52% 29.84 in 10.0 mi NNE 5.8 mph - N/A   Overcast
5:15 PM 33.8 °F 27.0 °F 17.6 °F 52% 29.83 in 10.0 mi NNE 8.1 mph - N/A   Overcast
5:35 PM 32.0 °F 26.4 °F 19.4 °F 60% 29.84 in 10.0 mi North 5.8 mph - N/A   Overcast
6:15 PM 32.0 °F 24.8 °F 21.2 °F 64% 29.84 in 10.0 mi NNW 8.1 mph - N/A   Overcast
6:55 PM 28.4 °F 19.7 °F 24.8 °F 86% 29.84 in 4.0 mi North 9.2 mph - N/A   Overcast
7:35 PM 26.6 °F 18.2 °F 26.6 °F 100% 29.82 in 1.0 mi NNE 8.1 mph - N/A   Overcast
7:55 PM 26.6 °F 19.1 °F 26.6 °F 100% 29.83 in 1.8 mi North 6.9 mph - N/A   Overcast
8:15 PM 26.6 °F 16.8 °F 26.6 °F 100% 29.83 in 3.0 mi North 10.4 mph - N/A   Overcast
8:35 PM 26.6 °F 19.1 °F 26.6 °F 100% 29.83 in 2.0 mi NNW 6.9 mph - N/A   Overcast
8:55 PM 26.6 °F 19.1 °F 26.6 °F 100% 29.83 in 2.0 mi North 6.9 mph - N/A   Overcast
9:15 PM 26.6 °F 21.2 °F 26.6 °F 100% 29.83 in 5.0 mi NNW 4.6 mph - N/A   Overcast
10:15 PM 26.6 °F 21.2 °F 26.6 °F 100% 29.84 in 5.0 mi NW 4.6 mph - N/A   Overcast
10:35 PM 26.6 °F 20.0 °F 24.8 °F 93% 29.84 in 4.0 mi NW 5.8 mph - N/A   Overcast
10:55 PM 26.6 °F 21.2 °F 24.8 °F 93% 29.84 in 10.0 mi NNW 4.6 mph - N/A   Mostly Cloudy
11:15 PM 26.6 °F 19.1 °F 24.8 °F 93% 29.85 in 10.0 mi NNW 6.9 mph - N/A   Overcast
11:35 PM 26.6 °F 20.0 °F 24.8 °F 93% 29.85 in 10.0 mi NNW 5.8 mph - N/A   Overcast
11:55 PM 26.6 °F 20.0 °F 24.8 °F 93% 29.84 in 10.0 mi North 5.8 mph - N/A   Overcast